Content
SEND FEEDBACK

Daily
Averages
Monthly
Summary
United Kingdom

LIVERPOOL, ENGLAND


Home > Europe > United Kingdom > England
Elevation: 85 feet     Latitude: 53 20N     Longitude: 002 51W

WEATHER
 
SELECT A DAY
Number of Records: 283,658;   Date Range: 7/1/96 - 7/29/14
 
SHARE

PRINT THIS DATA

[ ← Previous Day ]
WEATHER ALMANAC - OCTOBER 22, 2013
[ Next Day → ]
[ °C ]   °F
Weather ElementAverageHighLow
Temperature59.7 °F64.4 °F (2:20 pm)57.2 °F (8:20 pm)
Dewpoint55.9 °F57.2 °F (12:50 am)53.6 °F (8:20 pm)
Humidity87.3 %94 % (1:20 am)77 % (2:20 pm)
Barometer29.26 in29.39 in (12:50 am)29.15 in (11:50 pm)
Wind Speed13.1 mph19.6 mph (1:20 am)
Weather ElementAverage
Visibility6.2 mi
Wind DirectionSSE (161.7 °)

Weather ElementTotal
Precipitation---
Heating Degree Days4.2 (Base 65)
Growing Degree Days10.8 (Base 50)
Averaged from 47 records on October 22, 2013
WEATHER CONDITIONS BREAKOUT
WIND DIRECTION BREAKOUT
WEATHER BY HOUR - OCTOBER 22, 2013
[ °C ]   °F
Local TimeTemperatureDewpointHumidityBarometerVisibilityWind DirectionWind SpeedGust SpeedPrecipitationEventsConditions
12:50 AM60.8 °F57.2 °F88 %29.39 in6.2 miSSE (160°)17.3 mphRainLight Rain Showers
1:20 AM59.0 °F57.2 °F94 %29.39 in6.2 miSouth (170°)19.6 mphRainLight Rain Showers
1:50 AM60.8 °F57.2 °F88 %29.39 in6.2 miSouth (170°)17.3 mphRainLight Rain Showers
2:20 AM60.8 °F57.2 °F88 %29.36 in6.2 miSSE (160°)19.6 mphRainLight Rain Showers
2:50 AM59.0 °F57.2 °F94 %29.36 in6.2 miSSE (160°)18.4 mphRainLight Rain Showers
3:20 AM59.0 °F57.2 °F94 %29.36 in6.2 miSouth (170°)18.4 mphRainLight Rain Showers
3:50 AM59.0 °F57.2 °F94 %29.36 in6.2 miSSE (160°)13.8 mphRainLight Rain Showers
4:20 AM59.0 °F55.4 °F88 %29.33 in6.2 miSSE (160°)12.7 mphRainLight Rain Showers
4:50 AM60.8 °F55.4 °F82 %29.33 in6.2 miSE (140°)11.5 mphRainLight Rain Showers
5:20 AM59.0 °F55.4 °F88 %29.33 in6.2 miSE (140°)10.4 mphScattered Clouds
5:50 AM59.0 °F55.4 °F88 %29.30 in6.2 miSE (140°)12.7 mphMostly Cloudy
6:20 AM59.0 °F55.4 °F88 %29.30 in6.2 miSSE (150°)10.4 mphMostly Cloudy
6:50 AM59.0 °F55.4 °F88 %29.30 in6.2 miSSE (150°)12.7 mphScattered Clouds
7:20 AM59.0 °F55.4 °F88 %29.27 in6.2 miSE (140°)15.0 mphScattered Clouds
7:50 AM59.0 °F55.4 °F88 %29.27 in6.2 miSE (140°)17.3 mphPartly Cloudy
8:20 AM59.0 °F55.4 °F88 %29.27 in6.2 miSSE (150°)16.1 mphPartly Cloudy
8:50 AM59.0 °F55.4 °F88 %29.27 in6.2 miSSE (150°)12.7 mphPartly Cloudy
9:20 AM59.0 °F55.4 °F88 %29.27 in6.2 miSSE (150°)12.7 mphScattered Clouds
9:50 AM59.0 °F55.4 °F88 %29.27 in6.2 miSSE (150°)9.2 mphScattered Clouds
10:20 AM59.0 °F55.4 °F88 %29.27 in5.6 miSouth (170°)17.3 mphRainLight Rain Showers
10:50 AM59.0 °F57.2 °F94 %29.27 in6.2 miSouth (180°)18.4 mphRainLight Rain Showers
11:20 AM59.0 °F55.4 °F88 %29.24 in6.2 miSSE (160°)11.5 mphScattered Clouds
11:50 AM59.0 °F57.2 °F94 %29.27 in6.2 miSouth (170°)12.7 mphScattered Clouds
12:20 PM60.8 °F57.2 °F88 %29.27 in6.2 miSouth (180°)12.7 mphScattered Clouds
12:50 PM60.8 °F57.2 °F88 %29.24 in6.2 miSouth (170°)13.8 mphScattered Clouds
1:20 PM60.8 °F57.2 °F88 %29.24 in6.2 miSouth (180°)12.7 mphScattered Clouds
1:50 PM62.6 °F57.2 °F82 %29.24 in6.2 miSouth (180°)12.7 mphPartly Cloudy
2:20 PM64.4 °F57.2 °F77 %29.24 in6.2 miSouth (170°)15.0 mphScattered Clouds
2:50 PM62.6 °F55.4 °F77 %29.24 in6.2 miSouth (170°)16.1 mphScattered Clouds
3:20 PM62.6 °F55.4 °F77 %29.21 in6.2 miSouth (180°)10.4 mphScattered Clouds
3:50 PM60.8 °F57.2 °F88 %29.21 in6.2 miSouth (170°)11.5 mphRainLight Rain Showers
4:20 PM60.8 °F55.4 °F82 %29.21 in6.2 miSouth (180°)8.1 mphScattered Clouds
4:50 PM60.8 °F55.4 °F82 %29.21 in6.2 miSouth (180°)10.4 mphScattered Clouds
5:20 PM60.8 °F55.4 °F82 %29.21 in6.2 miSSE (160°)6.9 mphScattered Clouds
5:50 PM60.8 °F55.4 °F82 %29.21 in6.2 miSouth (170°)8.1 mphScattered Clouds
6:20 PM59.0 °F55.4 °F88 %29.21 in6.2 miSouth (170°)8.1 mphScattered Clouds
6:50 PM59.0 °F55.4 °F88 %29.21 in6.2 miSSE (160°)10.4 mphPartly Cloudy
7:20 PM59.0 °F55.4 °F88 %29.21 in6.2 miSSE (160°)10.4 mphPartly Cloudy
7:50 PM59.0 °F55.4 °F88 %29.21 in6.2 miSSE (160°)9.2 mphPartly Cloudy
8:20 PM57.2 °F53.6 °F88 %29.18 in6.2 miSSE (160°)11.5 mphPartly Cloudy
8:50 PM59.0 °F53.6 °F82 %29.18 in6.2 miSouth (170°)11.5 mphPartly Cloudy
9:20 PM59.0 °F55.4 °F88 %29.18 in6.2 miSSE (160°)11.5 mphPartly Cloudy
9:50 PM59.0 °F55.4 °F88 %29.18 in6.2 miSSE (160°)11.5 mphPartly Cloudy
10:20 PM59.0 °F55.4 °F88 %29.18 in6.2 miSSE (160°)12.7 mphPartly Cloudy
10:50 PM59.0 °F55.4 °F88 %29.18 in6.2 miSSE (160°)16.1 mphPartly Cloudy
11:20 PM59.0 °F55.4 °F88 %29.18 in6.2 miSSE (150°)15.0 mphRainLight Rain Showers
11:50 PM57.2 °F55.4 °F94 %29.15 in6.2 miSSE (150°)13.8 mphScattered Clouds
Hourly data recorded from EGGP, located miles away from Liverpool, England







STORIES FROM OUR PARTNERS